Vertical_Velocity
-1 1 4 3 -1 -0 1 -0 1 -7 -3 4 0 2 -1 -3 -1 1 1 1 -2 -2 0 -1 -1 1 2 1 -1 -1 -1 -1 -3 -1 -2 0 -0 -3 -2 -1 -0 -0 0 0
-1 4 0 -1 -2 -1 -1 0 2 -0 -6 0 -2 2 -1 -3 -1 -1 1 -1 -0 2 -1 0 -0 -1 0 1 -2 -1 1 1 -4 -1 -1 -1 -1 -0 -0 3 1 1 2 0
1 5 0 -1 -1 0 -1 3 -1 -1 -4 -4 -1 4 -2 -1 1 -2 -1 -4 -2 -2 2 -3 -2 -2 1 -0 -1 -2 -0 -2 -3 -0 -1 -2 -2 -1 -1 2 -1 -1 -2 -2
-2 4 -3 -0 -1 -2 4 -0 -3 -2 -1 -2 -3 3 2 -4 -1 -3 -3 -1 -1 -4 3 3 -3 -1 -1 1 0 -4 -2 -1 -2 -1 -0 -1 2 2 2 1 -1 -0 0 -2
2 1 -2 -2 6 -1 3 -4 -1 -2 -1 -2 1 -7 9 1 2 2 -0 -2 -2 -3 1 3 2 -1 -1 -0 -1 -1 -2 1 0 -1 -1 1 1 2 2 -2 -3 -2 0 1
0 4 0 3 1 -4 -3 -2 -1 -0 1 -3 1 -9 6 -3 -0 -2 -1 -1 1 -1 -5 -1 2 4 1 -1 2 1 -0 -1 -1 -2 -3 -0 0 1 2 1 -0 1 1 1
-3 -1 -3 1 1 -0 2 3 1 -3 -3 2 2 -5 -2 3 -4 1 -1 0 1 -2 -4 2 5 0 -2 3 -1 1 0 0 -0 0 0 2 0 0 0 -1 -0 -1 -1 -1
0 -2 -2 3 3 6 4 4 1 -4 -1 5 1 -11 -5 1 2 -2 -0 1 0 -1 -1 1 3 1 0 -1 1 5 3 3 4 3 2 1 -1 1 1 -2 -1 1 1 1
0 -1 -2 -0 0 1 0 -5 5 -3 -1 1 0 -4 -6 0 2 0 -1 3 1 2 3 1 1 1 -2 3 2 0 2 2 4 13 -1 1 0 -2 -1 1 1 -1 0 -1
-3 -0 -0 -0 -1 -5 -4 1 0 -5 -1 -3 -3 -7 -4 -2 2 4 -2 5 4 1 1 3 4 3 1 1 -0 -0 2 -1 1 1 3 2 3 -0 -4 -1 1 3 2 -0
0 2 -0 -0 -1 4 0 -2 -0 0 3 -4 0 -9 7 1 1 3 2 5 8 0 4 6 -1 2 -4 -0 -4 -0 -2 -5 -8 -2 1 -3 3 -3 -4 2 0 2 1 2
-3 -1 -1 3 0 0 -1 -1 -4 -1 1 -4 3 -9 2 1 1 2 3 2 3 5 2 1 1 -3 -1 -7 -2 -1 2 -4 1 -7 -4 -2 -5 -3 -8 -6 -1 -1 1 0
-5 4 0 0 -2 -2 0 1 1 0 2 -5 1 -10 4 -1 -5 1 -1 3 2 3 3 1 -1 -1 -4 0 -2 -0 -4 8 -1 2 -2 4 -6 3 1 0 -1 -1 -0 -1
-1 1 3 0 1 4 -2 2 1 -1 1 -6 -3 -11 -0 -1 -5 -0 -2 -1 4 7 4 2 -1 -3 -1 3 -1 5 0 10 -1 -6 22 2 11 4 -0 5 1 0 1 5
4 -2 1 2 -0 -1 -1 -1 1 2 4 -3 -1 -4 2 2 -5 -3 -3 6 0 5 3 -0 -4 -4 5 5 4 9 17 12 12 11 -8 13 29 -3 -1 5 2 1 3 -1
-5 -7 -2 2 2 2 0 1 0 -0 -2 -4 -1 -4 6 1 -4 1 10 8 -1 3 -2 2 -0 1 2 4 -4 -2 4 -4 21 9 -15 -14 38 -6 -12 1 -2 -1 2 -2
2 -3 -6 -5 3 1 1 -1 2 2 -1 -2 -0 -2 1 2 -3 -3 7 6 3 1 -1 3 -4 -1 -2 -3 -3 5 -1 -7 -4 -0 -2 2 -2 2 3 4 9 1 1 -1
-4 -1 -1 -5 2 -8 -2 6 3 2 1 1 -3 -0 1 0 1 -0 5 2 6 8 -4 0 -6 -0 -5 0 7 11 13 -0 2 -2 3 -4 3 2 2 3 4 -4 -4 0
-1 -2 -1 -5 1 -3 -3 -5 -1 2 5 3 -7 -1 -3 -7 2 2 1 0 5 14 1 -4 -6 4 5 -5 4 -4 -20 -23 14 0 -4 -1 -2 -4 6 2 -3 2 8 2
0 -1 -1 -1 -4 -5 5 1 4 4 -12 -0 2 0 -2 -6 -6 6 2 3 14 6 8 -5 5 3 -0 -0 6 -0 -6 -22 3 3 -9 0 5 4 -2 -5 4 3 2 2
-2 -1 -0 -2 -4 -11 4 2 5 -3 -5 3 -4 -2 -2 -3 -6 2 -3 1 4 -0 6 2 3 1 2 1 4 3 -14 6 5 1 2 -2 -0 6 0 0 2 -3 -3 -3
0 -3 2 0 -0 -2 6 1 5 -2 3 -0 -1 2 3 1 -3 -6 6 5 0 -2 3 0 0 4 4 0 -3 4 1 5 -0 -3 3 -1 7 1 2 -3 -3 -1 2 1
-0 -2 -3 -1 3 0 -1 -1 -0 -0 1 -2 1 3 3 2 3 -6 -5 -3 1 -1 6 3 3 1 3 -1 -0 -3 -2 2 -3 -1 -1 1 -4 -6 -1 2 3 1 3 -1
0 0 1 -0 1 -3 2 2 1 1 1 -1 1 4 6 -0 -3 -1 -2 -9 -7 -3 5 -1 -0 2 3 4 1 0 1 1 1 0 -2 2 3 2 1 -2 3 -0 0 -4
0 2 0 1 -1 0 -1 1 0 3 2 3 4 -1 3 -1 -7 -4 2 1 2 -0 0 8 4 0 1 -8 -6 0 -1 -2 1 3 2 -1 -2 1 4 0 0 2 4 0
-1 -2 -2 2 1 1 1 1 -2 1 0 -3 -0 2 2 -1 1 2 4 -3 4 7 4 5 -4 1 5 5 6 -2 -1 5 4 3 -6 -3 0 -1 2 -0 -2 -2 -3 1
Height
5904 5908 5911 5911 5913 5914 5916 5918 5919 5921 5922 5923 5923 5924 5921 5920 5920 5920 5918 5915 5914 5912 5910 5908 5906 5903 5901 5899 5898 5897 5897 5896 5896 5897 5898 5899 5899 5899 5897 5896 5896 5896 5897 5896
5901 5904 5906 5907 5910 5911 5913 5916 5917 5917 5918 5921 5921 5923 5921 5920 5920 5919 5918 5916 5914 5914 5912 5910 5908 5906 5905 5902 5901 5899 5898 5897 5896 5897 5897 5898 5898 5899 5899 5899 5897 5896 5895 5895
5896 5900 5902 5903 5905 5907 5910 5913 5914 5915 5915 5918 5920 5923 5921 5921 5920 5919 5917 5915 5913 5912 5913 5911 5910 5908 5908 5906 5904 5902 5901 5900 5898 5899 5899 5899 5898 5899 5899 5899 5898 5896 5895 5894
5891 5893 5897 5899 5900 5904 5907 5908 5910 5911 5913 5915 5918 5921 5921 5919 5918 5917 5916 5915 5913 5911 5911 5910 5909 5908 5907 5907 5906 5904 5903 5902 5901 5900 5900 5900 5899 5900 5900 5898 5896 5894 5893 5892
5888 5889 5891 5895 5897 5899 5903 5902 5906 5908 5909 5912 5913 5916 5918 5917 5917 5917 5914 5913 5912 5911 5910 5910 5910 5908 5906 5905 5905 5905 5904 5903 5902 5901 5900 5899 5898 5898 5897 5895 5894 5892 5892 5891
5882 5885 5888 5890 5891 5894 5896 5900 5902 5904 5906 5908 5910 5911 5915 5914 5915 5915 5913 5912 5910 5908 5910 5910 5909 5908 5905 5904 5903 5903 5903 5902 5900 5900 5899 5897 5896 5895 5894 5893 5891 5891 5890 5889
5877 5880 5882 5885 5887 5890 5892 5896 5897 5900 5901 5904 5907 5907 5911 5912 5912 5911 5911 5910 5908 5906 5908 5908 5907 5905 5904 5902 5901 5900 5900 5899 5898 5897 5896 5895 5894 5892 5891 5889 5888 5888 5887 5886
5874 5875 5876 5880 5883 5886 5887 5891 5893 5894 5897 5901 5902 5902 5906 5909 5908 5908 5907 5907 5906 5905 5906 5905 5904 5903 5901 5900 5899 5898 5896 5894 5894 5895 5894 5892 5891 5889 5887 5887 5886 5886 5884 5882
5869 5870 5872 5875 5877 5880 5882 5885 5889 5890 5892 5895 5897 5900 5903 5904 5904 5904 5903 5903 5903 5903 5903 5902 5902 5901 5899 5898 5897 5896 5895 5893 5891 5893 5891 5890 5889 5887 5886 5884 5883 5883 5880 5877
5864 5865 5868 5870 5872 5874 5877 5882 5885 5886 5888 5890 5892 5895 5900 5900 5901 5901 5899 5899 5899 5900 5899 5898 5898 5897 5896 5892 5894 5894 5893 5891 5889 5888 5888 5888 5887 5886 5885 5884 5883 5881 5879 5876
5861 5862 5865 5866 5869 5870 5873 5876 5879 5883 5885 5887 5889 5891 5895 5896 5898 5897 5896 5895 5895 5896 5895 5894 5894 5892 5890 5889 5890 5891 5890 5889 5889 5886 5885 5885 5884 5884 5882 5881 5880 5878 5876 5875
5858 5859 5860 5864 5864 5865 5868 5871 5875 5878 5881 5882 5884 5886 5890 5891 5894 5892 5893 5894 5894 5893 5892 5891 5891 5890 5888 5886 5885 5884 5883 5882 5880 5881 5881 5881 5880 5880 5879 5878 5876 5874 5873 5872
5856 5858 5858 5860 5861 5863 5865 5868 5871 5874 5876 5877 5879 5881 5885 5886 5890 5889 5889 5891 5891 5890 5889 5887 5886 5885 5881 5880 5880 5880 5881 5880 5876 5869 5873 5876 5875 5875 5874 5873 5873 5871 5868 5866
5854 5856 5856 5858 5859 5861 5862 5865 5868 5870 5872 5873 5875 5877 5879 5881 5884 5887 5887 5888 5888 5887 5885 5884 5882 5881 5880 5879 5877 5877 5876 5872 5871 5871 5867 5864 5866 5868 5869 5870 5870 5867 5864 5862
5851 5852 5854 5855 5855 5856 5858 5860 5863 5866 5868 5869 5871 5872 5875 5878 5879 5883 5886 5886 5884 5883 5882 5879 5878 5878 5878 5876 5873 5871 5866 5863 5862 5861 5846 5855 5854 5858 5863 5863 5864 5864 5862 5859
5844 5846 5849 5850 5852 5853 5854 5856 5859 5860 5862 5864 5866 5868 5872 5873 5875 5878 5882 5881 5879 5878 5876 5875 5873 5872 5873 5870 5866 5864 5863 5859 5860 5855 5842 5844 5849 5854 5855 5854 5857 5859 5858 5855
5838 5840 5842 5844 5846 5848 5849 5852 5854 5855 5856 5859 5860 5864 5866 5869 5871 5873 5875 5876 5875 5873 5872 5870 5870 5868 5865 5862 5862 5863 5863 5861 5860 5854 5850 5848 5853 5852 5850 5850 5851 5852 5851 5849
5830 5832 5835 5837 5839 5839 5844 5846 5848 5849 5851 5853 5855 5858 5861 5863 5865 5868 5870 5871 5871 5870 5869 5868 5866 5865 5861 5861 5858 5857 5856 5856 5857 5854 5851 5851 5852 5852 5852 5850 5851 5849 5847 5844
5822 5823 5825 5828 5830 5833 5837 5839 5840 5841 5843 5844 5846 5850 5854 5856 5858 5862 5864 5866 5866 5867 5865 5863 5862 5862 5860 5858 5858 5855 5853 5847 5850 5849 5847 5850 5851 5849 5849 5848 5845 5843 5841 5839
5813 5814 5816 5819 5821 5822 5829 5831 5832 5833 5832 5838 5838 5840 5845 5848 5850 5856 5857 5859 5861 5861 5860 5859 5859 5859 5856 5856 5856 5852 5848 5840 5845 5845 5842 5844 5845 5846 5844 5841 5839 5837 5834 5833
5805 5806 5808 5809 5810 5814 5817 5820 5823 5825 5831 5829 5829 5832 5836 5840 5845 5848 5850 5853 5854 5855 5855 5854 5854 5853 5854 5855 5852 5849 5845 5847 5845 5843 5841 5840 5838 5837 5836 5834 5832 5830 5827 5826
5799 5799 5801 5803 5804 5808 5811 5810 5812 5817 5820 5822 5822 5824 5827 5831 5836 5839 5843 5847 5848 5848 5850 5850 5849 5848 5848 5849 5848 5849 5847 5845 5841 5836 5834 5833 5832 5830 5828 5827 5824 5820 5817 5816
5793 5794 5795 5798 5800 5801 5801 5802 5803 5807 5812 5814 5816 5819 5821 5825 5829 5832 5833 5837 5840 5842 5842 5842 5842 5842 5841 5840 5841 5842 5839 5836 5833 5830 5829 5826 5824 5822 5820 5817 5813 5811 5811 5809
5785 5787 5789 5792 5794 5794 5795 5796 5797 5800 5804 5808 5810 5813 5816 5818 5821 5825 5827 5829 5830 5830 5832 5833 5833 5833 5832 5831 5830 5833 5832 5830 5827 5825 5824 5821 5821 5817 5814 5811 5808 5807 5803 5800
5780 5781 5783 5786 5786 5788 5788 5789 5790 5793 5796 5801 5805 5807 5810 5812 5814 5817 5819 5819 5820 5823 5824 5826 5826 5825 5825 5822 5823 5825 5824 5823 5820 5818 5816 5815 5811 5808 5806 5803 5802 5800 5795 5792
5771 5774 5776 5778 5780 5782 5784 5784 5784 5785 5789 5793 5797 5801 5804 5808 5810 5811 5811 5812 5814 5818 5819 5820 5818 5816 5818 5815 5815 5817 5815 5812 5811 5810 5808 5806 5805 5803 5800 5797 5792 5789 5786 5783